Location: *
(43.0167°S, 179.9000°E)
Time: 12:02:41
(UTC+00:00)

SeaSat 1 - Pass Details

Date: 12 August 2024
Orbit: 739 x 743 km, 108.0° (Epoch: 12 September)

Event Time Altitude Azimuth Distance (km) Brightness Sun altitude
Rises 16:07:07 0° 157° (SSE) 3,214 6.1 -31.4°
Reaches altitude 10° 16:09:26 10° 161° (SSE) 2,284 5.2 -31.0°
Enters shadow 16:11:33 25° 168° (SSE) 1,477 4.1 -30.6°
